| time (UTC) | temp C | wind direction | speed KPH | gust KPH | rain 1hr cm | rain 24hr cm | rain mn cm | humidity % | barometer mb |
| 20260505085018 | 18 | 266 | 0.0 | 0.0 | 0.00 | 0.00 | 0.00 | 61 | 1019.7 |
| 20260505084513 | 18 | 266 | 0.0 | 0.0 | 0.00 | 0.00 | 0.00 | 59 | 1019.6 |
| 20260505084010 | 18 | 266 | 0.0 | 0.0 | 0.00 | 0.00 | 0.00 | 59 | 1019.6 |
| 20260505083501 | 18 | 266 | 0.0 | 0.0 | 0.00 | 0.00 | 0.00 | 58 | 1019.4 |
| 20260505082955 | 18 | 266 | 0.0 | 0.0 | 0.00 | 0.00 | 0.00 | 56 | 1019.4 |
| 20260505082449 | 18 | 266 | 0.0 | 0.0 | 0.00 | 0.00 | 0.00 | 56 | 1019.3 |
| 20260505081942 | 18 | 266 | 0.0 | 0.0 | 0.00 | 0.00 | 0.00 | 55 | 1019.2 |
| 20260505081439 | 19 | 266 | 0.0 | 0.0 | 0.00 | 0.00 | 0.00 | 55 | 1019.1 |
| 20260505080931 | 19 | 263 | 0.0 | 0.0 | 0.00 | 0.00 | 0.00 | 53 | 1019.0 |
| 20260505080424 | 19 | 263 | 0.0 | 0.0 | 0.00 | 0.00 | 0.00 | 51 | 1018.9 |
| 20260505075919 | 20 | 263 | 0.0 | 0.0 | 0.00 | 0.00 | 0.00 | 49 | 1018.7 |
| 20260505075640 | 20 | 263 | 0.0 | 0.0 | 0.00 | 0.00 | 0.00 | 47 | 1018.6 |
| 20260505075128 | 20 | 263 | 0.0 | 0.0 | 0.00 | 0.00 | 0.00 | 47 | 1018.4 |
| 20260505074400 | 20 | 263 | 0.0 | 0.0 | 0.00 | 0.00 | 0.00 | 46 | 1018.3 |
| 20260505073854 | 21 | 263 | 0.0 | 0.0 | 0.00 | 0.00 | 0.00 | 46 | 1018.2 |
| 20260505073349 | 21 | 263 | 0.0 | 0.0 | 0.00 | 0.00 | 0.00 | 45 | 1018.2 |
| 20260505072842 | 21 | 263 | 0.0 | 0.0 | 0.00 | 0.00 | 0.00 | 44 | 1018.1 |
| 20260505072338 | 21 | 263 | 0.0 | 0.0 | 0.00 | 0.00 | 0.00 | 44 | 1018.0 |
| 20260505071831 | 21 | 263 | 0.0 | 0.0 | 0.00 | 0.00 | 0.00 | 43 | 1018.0 |
| 20260505071324 | 22 | 263 | 0.0 | 0.0 | 0.00 | 0.00 | 0.00 | 43 | 1017.9 |
| 20260505070819 | 22 | 263 | 0.0 | 0.0 | 0.00 | 0.00 | 0.00 | 42 | 1017.8 |
| 20260505070312 | 22 | 263 | 0.0 | 0.0 | 0.00 | 0.00 | 0.00 | 42 | 1017.8 |
| 20260505065808 | 22 | 263 | 0.0 | 0.0 | 0.00 | 0.00 | 0.00 | 41 | 1017.7 |
| 20260505065300 | 23 | 263 | 0.0 | 0.0 | 0.00 | 0.00 | 0.00 | 41 | 1017.6 |
| 20260505064754 | 23 | 263 | 0.0 | 0.0 | 0.00 | 0.00 | 0.00 | 40 | 1017.6 |
| 20260505064248 | 23 | 263 | 0.0 | 0.0 | 0.00 | 0.00 | 0.00 | 40 | 1017.5 |
| 20260505063742 | 23 | 263 | 0.0 | 0.0 | 0.00 | 0.00 | 0.00 | 39 | 1017.4 |
| 20260505063238 | 23 | 263 | 0.0 | 0.0 | 0.00 | 0.00 | 0.00 | 39 | 1017.4 |
| 20260505062949 | 23 | 263 | 0.0 | 0.0 | 0.00 | 0.00 | 0.00 | 39 | 1017.4 |
| 20260505062225 | 23 | 263 | 0.0 | 0.0 | 0.00 | 0.00 | 0.00 | 39 | 1017.4 |
| 20260505061719 | 23 | 263 | 0.0 | 1.6 | 0.00 | 0.00 | 0.00 | 39 | 1017.4 |
| 20260505061212 | 23 | 263 | 0.0 | 1.6 | 0.00 | 0.00 | 0.00 | 40 | 1017.4 |
| 20260505060708 | 23 | 263 | 1.6 | 20.9 | 0.00 | 0.00 | 0.00 | 40 | 1017.4 |
| 20260505060201 | 23 | 262 | 1.6 | 20.9 | 0.00 | 0.00 | 0.00 | 40 | 1017.3 |
| 20260505055919 | 24 | 262 | 0.0 | 3.2 | 0.00 | 0.00 | 0.00 | 40 | 1017.3 |
| 20260505055148 | 23 | 263 | 4.8 | 24.1 | 0.00 | 0.00 | 0.00 | 40 | 1017.2 |
| 20260505054643 | 23 | 262 | 8.0 | 24.1 | 0.00 | 0.00 | 0.00 | 39 | 1017.2 |
| 20260505054139 | 23 | 262 | 3.2 | 24.1 | 0.00 | 0.00 | 0.00 | 39 | 1017.3 |
| 20260505053631 | 23 | 281 | 3.2 | 24.1 | 0.00 | 0.00 | 0.00 | 39 | 1017.3 |
| 20260505053124 | 23 | 281 | 4.8 | 24.1 | 0.00 | 0.00 | 0.00 | 39 | 1017.2 |
| 20260505052619 | 23 | 264 | 3.2 | 22.5 | 0.00 | 0.00 | 0.00 | 40 | 1017.3 |
| 20260505052112 | 23 | 264 | 1.6 | 22.5 | 0.00 | 0.00 | 0.00 | 39 | 1017.2 |
| 20260505051831 | 24 | 264 | 1.6 | 22.5 | 0.00 | 0.00 | 0.00 | 39 | 1017.1 |
| 20260505051101 | 24 | 264 | 3.2 | 24.1 | 0.00 | 0.00 | 0.00 | 39 | 1017.2 |
| 20260505050555 | 24 | 275 | 1.6 | 24.1 | 0.00 | 0.00 | 0.00 | 39 | 1017.1 |
| 20260505041454 | 23 | 170 | 4.8 | 20.9 | 0.00 | 0.00 | 0.00 | 42 | 1016.6 |
| 20260505041216 | 23 | 177 | 6.4 | 27.4 | 0.00 | 0.00 | 0.00 | 42 | 1016.6 |
| 20260505040443 | 23 | 288 | 12.9 | 27.4 | 0.00 | 0.00 | 0.00 | 44 | 1016.6 |
| 20260505035939 | 23 | 283 | 8.0 | 27.4 | 0.00 | 0.00 | 0.00 | 44 | 1016.6 |
| 20260505035652 | 23 | 231 | 1.6 | 17.7 | 0.00 | 0.00 | 0.00 | 45 | 1016.6 |
| 20260505034925 | 23 | 221 | 3.2 | 24.1 | 0.00 | 0.00 | 0.00 | 45 | 1016.6 |
| 20260505034642 | 23 | 272 | 6.4 | 30.6 | 0.00 | 0.00 | 0.00 | 44 | 1016.6 |
| 20260505033912 | 23 | 265 | 11.3 | 30.6 | 0.00 | 0.00 | 0.00 | 45 | 1016.7 |
| 20260505033637 | 23 | 255 | 16.1 | 30.6 | 0.00 | 0.00 | 0.00 | 44 | 1016.8 |
| 20260505032900 | 23 | 301 | 8.0 | 30.6 | 0.00 | 0.00 | 0.00 | 45 | 1016.8 |
| 20260505032356 | 23 | 278 | 1.6 | 29.0 | 0.00 | 0.00 | 0.00 | 46 | 1016.9 |
| 20260505031848 | 23 | 271 | 1.6 | 17.7 | 0.00 | 0.00 | 0.00 | 46 | 1016.8 |
| 20260505031343 | 22 | 198 | 0.0 | 3.2 | 0.00 | 0.00 | 0.00 | 48 | 1016.9 |
| 20260505030838 | 22 | 293 | 0.0 | 1.6 | 0.00 | 0.00 | 0.00 | 48 | 1017.0 |
| 20260505030331 | 22 | 291 | 0.0 | 1.6 | 0.00 | 0.00 | 0.00 | 48 | 1017.1 |
| 20260505025824 | 22 | 262 | 3.2 | 38.6 | 0.00 | 0.00 | 0.00 | 49 | 1017.2 |
| 20260505025319 | 22 | 258 | 8.0 | 38.6 | 0.00 | 0.00 | 0.00 | 50 | 1017.2 |
| 20260505024813 | 22 | 254 | 12.9 | 41.8 | 0.00 | 0.00 | 0.00 | 48 | 1017.1 |
| 20260505024309 | 22 | 266 | 12.9 | 41.8 | 0.00 | 0.00 | 0.00 | 48 | 1017.2 |
| 20260505023801 | 22 | 255 | 6.4 | 38.6 | 0.00 | 0.00 | 0.00 | 49 | 1017.3 |
| 20260505023255 | 22 | 254 | 4.8 | 38.6 | 0.00 | 0.03 | 0.00 | 48 | 1017.2 |
| 20260505022507 | 21 | 246 | 20.9 | 45.1 | 0.00 | 0.03 | 0.00 | 50 | 1017.3 |
| 20260505022002 | 21 | 281 | 22.5 | 45.1 | 0.00 | 0.03 | 0.00 | 50 | 1017.3 |
| 20260505021230 | 21 | 296 | 17.7 | 40.2 | 0.00 | 0.03 | 0.00 | 50 | 1017.3 |
| 20260505020725 | 21 | 291 | 16.1 | 43.5 | 0.00 | 0.03 | 0.00 | 50 | 1017.6 |
| 20260505020219 | 21 | 280 | 17.7 | 43.5 | 0.00 | 0.03 | 0.00 | 51 | 1017.7 |
| 20260505015712 | 21 | 239 | 6.4 | 40.2 | 0.00 | 0.03 | 0.00 | 51 | 1017.7 |
| 20260505015208 | 21 | 268 | 8.0 | 37.0 | 0.00 | 0.03 | 0.00 | 53 | 1017.8 |
| 20260505014700 | 21 | 267 | 9.7 | 37.0 | 0.00 | 0.03 | 0.00 | 52 | 1017.8 |
| 20260505014154 | 21 | 230 | 11.3 | 33.8 | 0.00 | 0.03 | 0.00 | 52 | 1017.9 |
| 20260505013648 | 21 | 276 | 9.7 | 51.5 | 0.00 | 0.05 | 0.00 | 52 | 1018.1 |
| 20260505013142 | 20 | 291 | 11.3 | 51.5 | 0.00 | 0.05 | 0.00 | 55 | 1018.1 |
| 20260505013114 | 20 | 282 | 19.3 | 56.3 | 0.00 | 0.08 | 0.00 | 54 | 1018.3 |
| 20260505012357 | 20 | 269 | 20.9 | 56.3 | 0.00 | 0.10 | 0.00 | 54 | 1018.2 |
| 20260505011624 | 20 | 233 | 20.9 | 48.3 | 0.00 | 0.15 | 0.00 | 56 | 1018.3 |
| 20260505011608 | 20 | 280 | 20.9 | 51.5 | 0.00 | 0.18 | 0.00 | 56 | 1018.3 |
| 20260505010612 | 20 | 271 | 19.3 | 51.5 | 0.00 | 0.18 | 0.00 | 56 | 1018.5 |
| 20260505010109 | 20 | 283 | 16.1 | 43.5 | 0.00 | 0.20 | 0.00 | 57 | 1018.5 |
| 20260505005601 | 20 | 250 | 17.7 | 48.3 | 0.00 | 0.20 | 0.00 | 58 | 1018.5 |
| 20260505005054 | 19 | 275 | 24.1 | 48.3 | 0.00 | 0.20 | 0.00 | 57 | 1018.7 |
| 20260505004548 | 19 | 271 | 24.1 | 48.3 | 0.00 | 0.23 | 0.00 | 59 | 1018.6 |
| 20260505004042 | 19 | 242 | 16.1 | 48.3 | 0.00 | 0.23 | 0.00 | 59 | 1018.7 |
| 20260505003538 | 19 | 247 | 16.1 | 41.8 | 0.00 | 0.25 | 0.00 | 60 | 1018.7 |
| 20260505003257 | 18 | 250 | 24.1 | 57.9 | 0.00 | 0.25 | 0.00 | 61 | 1018.7 |
| 20260505002524 | 18 | 281 | 24.1 | 57.9 | 0.00 | 0.28 | 0.00 | 62 | 1018.7 |
| 20260505002018 | 18 | 226 | 20.9 | 51.5 | 0.00 | 0.28 | 0.00 | 63 | 1018.8 |
| 20260505001742 | 18 | 258 | 9.7 | 35.4 | 0.00 | 0.28 | 0.00 | 65 | 1018.9 |
| 20260505001008 | 18 | 296 | 4.8 | 25.7 | 0.00 | 0.30 | 0.00 | 67 | 1019.0 |
| 20260505000501 | 18 | 295 | 8.0 | 27.4 | 0.00 | 0.30 | 0.00 | 68 | 1019.0 |
| 20260504235955 | 18 | 302 | 12.9 | 37.0 | 0.00 | 0.30 | 0.00 | 68 | 1019.0 |
| 20260504235449 | 18 | 271 | 17.7 | 38.6 | 0.00 | 0.30 | 0.00 | 69 | 1018.9 |
| 20260504235207 | 17 | 293 | 20.9 | 38.6 | 0.00 | 0.33 | 0.00 | 69 | 1018.8 |
| 20260504234717 | 17 | 273 | 22.5 | 38.6 | 0.00 | 0.36 | 0.00 | 70 | 1018.8 |
| 20260504233947 | 17 | 251 | 19.3 | 40.2 | 0.00 | 0.36 | 0.00 | 70 | 1018.9 |
| 20260504233447 | 17 | 275 | 17.7 | 40.2 | 0.00 | 0.38 | 0.00 | 72 | 1018.9 |
| 20260504232947 | 17 | 291 | 16.1 | 33.8 | 0.00 | 0.41 | 0.00 | 73 | 1018.9 |
| 20260504232448 | 17 | 285 | 19.3 | 41.8 | 0.00 | 0.41 | 0.00 | 72 | 1019.0 |
| 20260504231947 | 17 | 329 | 20.9 | 41.8 | 0.00 | 0.43 | 0.00 | 72 | 1019.0 |
| 20260504231717 | 17 | 293 | 22.5 | 40.2 | 0.00 | 0.46 | 0.00 | 71 | 1018.9 |
| 20260504230949 | 17 | 301 | 20.9 | 40.2 | 0.00 | 0.46 | 0.00 | 71 | 1018.9 |
| 20260504230448 | 16 | 304 | 11.3 | 38.6 | 0.00 | 0.48 | 0.00 | 73 | 1019.0 |
| 20260504225947 | 16 | 277 | 3.2 | 38.6 | 0.00 | 0.51 | 0.00 | 75 | 1019.0 |
| 20260504225448 | 16 | 296 | 6.4 | 24.1 | 0.00 | 0.51 | 0.00 | 77 | 1019.0 |
| 20260504225211 | 16 | 296 | 4.8 | 24.1 | 0.00 | 0.51 | 0.00 | 79 | 1019.0 |
| 20260504224449 | 15 | 293 | 0.0 | 0.0 | 0.00 | 0.51 | 0.00 | 81 | 1019.1 |
| 20260504223949 | 15 | 293 | 0.0 | 0.0 | 0.00 | 0.51 | 0.00 | 83 | 1019.3 |
| 20260504223441 | 15 | 293 | 0.0 | 0.0 | 0.00 | 0.51 | 0.00 | 85 | 1019.2 |
| 20260504222938 | 14 | 293 | 0.0 | 0.0 | 0.00 | 0.51 | 0.00 | 86 | 1019.3 |
| 20260504222433 | 14 | 293 | 0.0 | 0.0 | 0.00 | 0.51 | 0.00 | 88 | 1019.3 |
| 20260504222158 | 13 | 293 | 0.0 | 0.0 | 0.00 | 0.51 | 0.00 | 89 | 1019.2 |
| 20260504221434 | 13 | 293 | 0.0 | 0.0 | 0.00 | 0.51 | 0.00 | 90 | 1019.2 |
| 20260504220933 | 13 | 293 | 0.0 | 0.0 | 0.00 | 0.51 | 0.00 | 90 | 1019.4 |
| 20260504220430 | 13 | 293 | 0.0 | 0.0 | 0.00 | 0.51 | 0.00 | 91 | 1019.4 |
| 20260504215928 | 13 | 293 | 0.0 | 0.0 | 0.00 | 0.51 | 0.00 | 91 | 1019.4 |
| 20260504215429 | 12 | 293 | 0.0 | 0.0 | 0.00 | 0.51 | 0.00 | 91 | 1019.3 |
| 20260504214928 | 12 | 293 | 0.0 | 0.0 | 0.00 | 0.51 | 0.00 | 91 | 1019.2 |
| 20260504214427 | 12 | 293 | 0.0 | 0.0 | 0.00 | 0.51 | 0.00 | 91 | 1018.9 |
| 20260504213929 | 12 | 293 | 0.0 | 0.0 | 0.00 | 0.51 | 0.00 | 91 | 1018.7 |
| 20260504213426 | 12 | 293 | 0.0 | 0.0 | 0.00 | 0.51 | 0.00 | 90 | 1018.5 |
| 20260504212929 | 11 | 293 | 0.0 | 0.0 | 0.00 | 0.51 | 0.00 | 91 | 1018.4 |
| 20260504212427 | 11 | 293 | 0.0 | 0.0 | 0.00 | 0.51 | 0.00 | 90 | 1018.4 |
| 20260504211926 | 11 | 293 | 0.0 | 0.0 | 0.00 | 0.53 | 0.00 | 90 | 1018.3 |
| 20260504211428 | 11 | 293 | 0.0 | 0.0 | 0.00 | 0.53 | 0.00 | 90 | 1018.3 |
| 20260504210924 | 11 | 293 | 0.0 | 0.0 | 0.00 | 0.53 | 0.00 | 90 | 1018.2 |
| 20260504210418 | 11 | 293 | 0.0 | 0.0 | 0.00 | 0.53 | 0.00 | 89 | 1018.2 |
| 20260504205911 | 11 | 293 | 0.0 | 0.0 | 0.00 | 0.53 | 0.00 | 90 | 1018.0 |
| 20260504205410 | 11 | 293 | 0.0 | 0.0 | 0.00 | 0.53 | 0.00 | 89 | 1017.9 |
| 20260504204908 | 11 | 293 | 0.0 | 0.0 | 0.00 | 0.53 | 0.00 | 89 | 1017.8 |
| 20260504204409 | 11 | 293 | 0.0 | 0.0 | 0.00 | 0.53 | 0.00 | 89 | 1017.7 |
| 20260504204401 | 11 | 293 | 0.0 | 0.0 | 0.00 | 0.53 | 0.00 | 89 | 1017.6 |
| 20260504203407 | 11 | 293 | 0.0 | 0.0 | 0.00 | 0.53 | 0.00 | 89 | 1017.5 |
| 20260504202907 | 11 | 293 | 0.0 | 0.0 | 0.00 | 0.53 | 0.00 | 89 | 1017.5 |
| 20260504202404 | 11 | 293 | 0.0 | 0.0 | 0.00 | 0.53 | 0.00 | 88 | 1017.5 |
| 20260504202132 | 12 | 293 | 0.0 | 0.0 | 0.00 | 0.53 | 0.00 | 88 | 1017.5 |
| 20260504201400 | 12 | 293 | 0.0 | 0.0 | 0.00 | 0.53 | 0.00 | 88 | 1017.4 |
| 20260504200859 | 12 | 293 | 0.0 | 0.0 | 0.00 | 0.53 | 0.00 | 88 | 1017.4 |
| 20260504200359 | 12 | 293 | 0.0 | 0.0 | 0.00 | 0.53 | 0.00 | 88 | 1017.3 |
| 20260504195859 | 12 | 293 | 0.0 | 0.0 | 0.00 | 0.53 | 0.00 | 88 | 1017.3 |
| 20260504195358 | 12 | 293 | 0.0 | 0.0 | 0.00 | 0.53 | 0.00 | 88 | 1017.2 |
| 20260504194857 | 12 | 293 | 0.0 | 0.0 | 0.00 | 0.53 | 0.00 | 87 | 1017.1 |
| 20260504194358 | 12 | 293 | 0.0 | 0.0 | 0.00 | 0.53 | 0.00 | 88 | 1017.2 |
| 20260504193857 | 12 | 293 | 0.0 | 0.0 | 0.00 | 0.53 | 0.00 | 87 | 1017.1 |
| 20260504193352 | 12 | 293 | 0.0 | 0.0 | 0.00 | 0.53 | 0.00 | 87 | 1017.0 |
| 20260504193122 | 13 | 293 | 0.0 | 0.0 | 0.00 | 0.53 | 0.00 | 87 | 1017.0 |
| 20260504192351 | 13 | 293 | 0.0 | 0.0 | 0.00 | 0.53 | 0.00 | 87 | 1016.9 |
| 20260504192109 | 13 | 293 | 0.0 | 0.0 | 0.00 | 0.53 | 0.00 | 87 | 1016.9 |
| 20260504191351 | 13 | 293 | 0.0 | 0.0 | 0.00 | 0.53 | 0.00 | 87 | 1016.9 |
| 20260504190851 | 13 | 293 | 0.0 | 0.0 | 0.00 | 0.53 | 0.00 | 87 | 1016.9 |
| 20260504190617 | 13 | 293 | 0.0 | 0.0 | 0.00 | 0.53 | 0.00 | 87 | 1016.9 |
| 20260504185853 | 13 | 293 | 0.0 | 0.0 | 0.00 | 0.53 | 0.00 | 87 | 1016.9 |
| 20260504185351 | 13 | 293 | 0.0 | 0.0 | 0.00 | 0.53 | 0.00 | 87 | 1016.8 |
| 20260504184850 | 13 | 293 | 0.0 | 0.0 | 0.00 | 0.53 | 0.00 | 87 | 1016.7 |
| 20260504184353 | 13 | 293 | 0.0 | 0.0 | 0.00 | 0.53 | 0.00 | 87 | 1016.7 |
| 20260504183853 | 13 | 293 | 0.0 | 0.0 | 0.00 | 0.53 | 0.00 | 86 | 1016.6 |
| 20260504183614 | 13 | 293 | 0.0 | 0.0 | 0.00 | 0.53 | 0.00 | 86 | 1016.5 |
| 20260504182852 | 13 | 293 | 0.0 | 0.0 | 0.00 | 0.53 | 0.00 | 86 | 1016.4 |
| 20260504182352 | 13 | 293 | 0.0 | 0.0 | 0.00 | 0.53 | 0.00 | 87 | 1016.5 |
| 20260504181848 | 13 | 293 | 0.0 | 0.0 | 0.00 | 0.53 | 0.00 | 87 | 1016.4 |
| 20260504181348 | 13 | 293 | 0.0 | 0.0 | 0.00 | 0.53 | 0.00 | 87 | 1016.5 |
| 20260504181120 | 13 | 293 | 0.0 | 0.0 | 0.00 | 0.53 | 0.00 | 87 | 1016.5 |
| 20260504180349 | 13 | 293 | 0.0 | 0.0 | 0.00 | 0.53 | 0.00 | 87 | 1016.4 |
| 20260504175848 | 13 | 293 | 0.0 | 0.0 | 0.00 | 0.53 | 0.00 | 87 | 1016.4 |
| 20260504175346 | 13 | 293 | 0.0 | 0.0 | 0.00 | 0.53 | 0.00 | 87 | 1016.3 |
| 20260504174848 | 13 | 293 | 0.0 | 0.0 | 0.00 | 0.53 | 0.00 | 87 | 1016.3 |
| 20260504174348 | 14 | 293 | 0.0 | 0.0 | 0.00 | 0.53 | 0.00 | 87 | 1016.2 |
| 20260504173848 | 14 | 293 | 0.0 | 0.0 | 0.00 | 0.53 | 0.00 | 87 | 1016.3 |
| 20260504173612 | 14 | 293 | 0.0 | 0.0 | 0.00 | 0.53 | 0.00 | 87 | 1016.3 |
| 20260504172843 | 14 | 293 | 0.0 | 0.0 | 0.00 | 0.53 | 0.00 | 87 | 1016.3 |
| 20260504172342 | 14 | 293 | 0.0 | 0.0 | 0.00 | 0.53 | 0.00 | 87 | 1016.2 |
| 20260504171845 | 14 | 293 | 0.0 | 0.0 | 0.00 | 0.53 | 0.00 | 87 | 1016.3 |
| 20260504171559 | 14 | 293 | 0.0 | 0.0 | 0.00 | 0.53 | 0.00 | 87 | 1016.4 |
| 20260504170845 | 14 | 293 | 0.0 | 0.0 | 0.00 | 0.53 | 0.00 | 87 | 1016.3 |
| 20260504170839 | 14 | 293 | 0.0 | 0.0 | 0.00 | 0.53 | 0.00 | 87 | 1016.4 |
| 20260504150822 | 16 | 293 | 0.0 | 0.0 | 0.00 | 0.53 | 0.00 | 90 | 1016.3 |
| 20260504150316 | 16 | 293 | 0.0 | 0.0 | 0.00 | 0.53 | 0.00 | 90 | 1016.2 |
| 20260504141248 | 17 | 293 | 0.0 | 0.0 | 0.00 | 0.53 | 0.00 | 90 | 1016.3 |
| 20260504140748 | 17 | 293 | 0.0 | 0.0 | 0.00 | 0.53 | 0.00 | 90 | 1016.2 |
| 20260504140248 | 17 | 293 | 0.0 | 0.0 | 0.00 | 0.53 | 0.00 | 90 | 1016.0 |
| 20260504140231 | 17 | 293 | 0.0 | 0.0 | 0.00 | 0.53 | 0.53 | 90 | 1016.2 |
| 20260504130732 | 17 | 293 | 0.0 | 0.0 | 0.00 | 0.53 | 0.53 | 89 | 1016.4 |
| 20260504130234 | 17 | 293 | 0.0 | 0.0 | 0.00 | 0.53 | 0.53 | 89 | 1016.5 |
| 20260504120225 | 17 | 293 | 0.0 | 0.0 | 0.00 | 0.53 | 0.53 | 86 | 1016.4 |
| 20260504110721 | 19 | 293 | 0.0 | 0.0 | 0.00 | 0.53 | 0.53 | 82 | 1015.7 |
| 20260504110220 | 19 | 293 | 0.0 | 0.0 | 0.00 | 0.53 | 0.53 | 82 | 1015.7 |
| 20260504100220 | 19 | 293 | 0.0 | 0.0 | 0.00 | 0.53 | 0.53 | 82 | 1014.7 |